Погода в Гестахте

Германия     53°26′14″N   10°22′07″E
темп.,
°C
ветер,
м/с
пор.,
м/с
влажн.,
%
обл.,
%
осадки,
мм/ч
давл.,
гПа
погр.,
м
18 октября, пн
пн1823:00+10юз31074100 0.0 1020382
02:00+11юз41171100 0.0 1021434
05:00+10юз4127156 0.0 1021433
08:00+10юз41169100 0.0 1022396
11:00+12зюз41066100 0.0 1023414
14:00+12юз3767100 0.0 1023376
17:00+12ююз2570100 0.0 1022214
20:00+11ю3472100 0.0 102293
19 октября, вт
вт1923:00+10ююв3776100 0.0 1022146
02:00+10ю3777100 0.0 1021167
05:00+10ююз31075100 0.0 1019280
08:00+10ю41288100 0.9 1018342
11:00+12ююз41280100 0.0 1017457
14:00+14ююз51082100 0.0 1016617
17:00+13ююз51192100 0.0 1015520
20:00+14ююз51297100 2.3 1013541
20 октября, ср
ср2023:00+16юз71592100 0.4 1012905
02:00+15юз61791100 0.4 1011740
05:00+14юз61588100 0.0 1009570
08:00+14юз7178381 0.0 1007594
11:00+17ююз81870100 0.0 1005970
14:00+19юз9196297 0.0 10031649
17:00+18юз81569100 0.0 10011329
20:00+16юз91883100 1.1 10001229
21 октября, чт
чт2123:00+15юз81580100 0.3 9981075
02:00+14ююз61482100 0.3 995838
05:00+12зюз112087100 4.9 9911571
08:00+11юз112175100 5.5 9911598
11:00+11з101980100 0.3 9921553
14:00+13зюз10177290 0.7 9971635
17:00+11юз7117899 0.3 998844
20:00+9ююз2993100 4.4 997633
22 октября, пт
пт2223:00+10юз81580100 0.4 9981060
02:00+8юз71483100 1.3 9981019
05:00+8зюз71285100 0.7 998644
08:00+8зсз5891100 0.9 998748
11:00+9з5107991 0.4 10011113
14:00+10зсз7136482 0.6 10031705
17:00+9сз613645 0.1 10061417
20:00+7зсз5117784 0.1 1009581